[[{"header":{"parameterUnit":"m.s-1","parameterCategory":1,"la1":30.2991,"la2":30.254,"lo1":-89.0895,"lo2":-89.0444,"dy":0.0017,"dx":0.0017,"nx":28,"ny":28,"refTime":"2025-11-28T03:00:00:Z","depth":0,"parameterNumber":2,"parameterNumberName":"U-component_of_WINDS"},"data":[0,0,0,0,0,0,0,0,0,0,0,0,0,0,0,0,0,0,0,0,0,0,0,0,0,0,0,0,0,0,0,0,0,0,0,0,0,0,0,0,0,0,0,0,0,0,0,0,0,0,0,0,0,0,0,0,0,0,-4.2914,-4.2915,0,-4.2962,-4.2963,-4.2963,-4.285,-4.2847,-4.2843,-4.284,-4.2887,-4.2892,-4.2896,0,0,0,0,0,0,0,0,0,0,0,0,0,-4.2722,-4.2727,-4.2914,-4.2915,-4.2916,-4.2962,-4.2963,-4.2963,-4.2851,-4.2847,-4.2842,-4.2838,-4.2886,-4.2891,-4.2897,0,0,0,0,0,0,0,0,0,0,0,0,0,-4.2792,-4.2728,-4.2914,-4.2865,-4.2861,-4.2962,-4.2963,-4.2964,-4.2852,-4.2847,-4.2841,-4.2836,-4.2884,-4.289,-4.2897,-4.3047,0,0,-4.2918,-4.2921,0,0,0,0,0,0,0,0,-4.2788,-4.2799,-4.2872,-4.2869,-4.2865,-4.2895,-4.2912,-4.2992,-4.2853,-4.2856,-4.284,-4.2834,-4.2894,-4.29,-4.292,-4.305,-4.3052,-4.2919,-4.2923,-4.2926,-4.2928,0,0,0,0,0,0,0,-4.2783,-4.2796,-4.2933,-4.2873,-4.2869,-4.284,-4.2844,-4.2927,-4.2904,-4.2855,-4.2847,-4.2854,-4.2891,-4.2914,-4.2921,-4.3052,-4.2919,-4.2925,-4.2929,-4.2932,-4.3304,-4.331,0,0,0,0,0,0,-4.2785,-4.2793,-4.2932,-4.2935,-4.2812,-4.2847,-4.2852,-4.2891,-4.2903,-4.29,-4.2859,-4.2849,-4.2905,-4.2913,-4.2922,-4.3096,-4.2926,-4.2932,-4.2936,-4.3298,-4.3305,-4.3312,0,0,0,0,0,0,-4.2781,-4.2799,-4.293,-4.2862,-4.2876,-4.2857,-4.2901,-4.2894,-4.2917,-4.2906,-4.2901,-4.2887,-4.2901,-4.2912,-4.3016,-4.3096,-4.2936,-4.2942,-4.3292,-4.33,-4.3308,-4.3448,0,0,0,0,0,0,-4.2776,-4.2798,-4.2856,-4.2864,-4.288,-4.3025,-4.2906,-4.2899,-4.293,-4.2917,-4.2931,-4.2928,-4.2898,-4.3007,-4.3023,-4.3103,-4.2947,-4.3284,-4.3296,-4.3306,-4.3436,-4.346,-4.3481,0,0,0,0,0,-4.277,-4.2893,-4.2859,-4.2877,-4.2952,-4.303,-4.3039,-4.3002,-4.2937,-4.2994,-4.2986,-4.2927,-4.3085,-4.3018,-4.3036,-4.3119,-4.3279,-4.3292,-4.3305,-4.3426,-4.3456,-4.3481,0,0,0,0,0,0,-4.2895,-4.2893,-4.2856,-4.2986,-4.3009,-4.3011,-4.3082,-4.3035,-4.3077,-4.3063,-4.3015,-4.3019,-4.3132,-4.3136,-4.3062,-4.3264,-4.3171,-4.3188,-4.3257,-4.3285,-4.3307,-4.3303,-4.2953,0,0,0,0,0,-4.2938,-4.3002,-4.2997,-4.3112,-4.3125,-4.3102,-4.3134,-4.3104,-4.3126,-4.3135,-4.3135,-4.3158,-4.3212,-4.3249,-4.3298,-4.3436,-4.3436,-4.3502,-4.3525,-4.3543,-4.3558,-4.3629,-4.3657,-4.3354,-4.3354,-4.3354,0,0,-4.3026,-4.3033,-4.3077,-4.3137,-4.3151,-4.3217,-4.3111,-4.3186,-4.3234,-4.3146,-4.3244,-4.3245,-4.3267,-4.3388,-4.3442,-4.3395,-4.3642,-4.356,-4.3574,-4.3579,-4.3645,-4.3674,-4.3699,-4.3363,-4.3361,-4.336,0,0,-4.3221,-4.3234,-4.333,-4.3347,-4.337,-4.3353,-4.3376,-4.3386,-4.3383,-4.348,-4.3415,-4.3471,-4.3567,-4.3584,-4.3606,-4.3806,-4.3753,-4.3824,-4.3941,-4.4011,-4.4034,-4.4055,-4.4125,-4.4151,-4.3839,-4.3839,-4.384,0,-4.3329,-4.3427,-4.3386,-4.3465,-4.3492,-4.3416,-4.3511,-4.3529,-4.3567,-4.3587,-4.3535,-4.3651,-4.3661,-4.3784,-4.3833,-4.3854,-4.3877,-4.3822,-4.4035,-4.4055,-4.4074,-4.414,-4.4166,-4.3848,-4.3847,-4.3846,-4.3845,0,-4.3556,-4.3625,-4.37,-4.3738,-4.3774,-4.3862,-4.3832,-4.3873,-4.384,-4.3828,-4.3928,-4.3936,-4.3985,-4.4013,-4.3981,-4.4131,-4.4101,-4.4043,-4.3948,-4.4112,-4.4173,-4.4198,-4.386,-4.3857,-4.3854,-4.3852,0,0,-4.3831,-4.3845,-4.3873,-4.3889,-4.3908,-4.396,-4.4043,-4.4091,-4.4126,-4.4155,-4.4222,-4.4304,-4.4249,-4.4274,-4.4243,-4.4305,-4.446,-4.4238,-4.4237,-4.4277,-4.4624,-4.4667,-4.4697,-4.4426,-4.443,-4.4434,-4.4622,0,-4.4023,-4.4166,-4.413,-4.4272,-4.4333,-4.4261,-4.4333,-4.4352,-4.4343,-4.4394,-4.4383,-4.4442,-4.4366,-4.438,-4.4438,-4.4429,-4.4529,-4.4415,-4.4486,-4.4489,-4.4481,-4.4729,-4.4775,-4.4952,-4.4645,-4.4649,-4.4652,0,-4.4265,-4.4303,-4.445,-4.4458,-4.4482,-4.4548,-4.4588,-4.4638,-4.4657,-4.4646,-4.4673,-4.4629,-4.471,-4.4616,-4.4724,-4.4648,-4.4675,-4.4675,-4.468,-4.4684,-4.458,-4.4738,-4.5008,-4.5034,-4.469,-4.4687,-4.4684,0,-4.4449,-4.4536,-4.4635,-4.4651,-4.4663,-4.471,-4.4717,-4.4731,-4.4762,-4.4797,-4.4815,-4.486,-4.4884,-4.4918,-4.4887,-4.4822,-4.5,-4.4904,-4.4992,-4.4993,-4.5032,-4.5029,-4.5307,-4.5052,-4.5052,-4.5051,-4.5051,0,-4.4665,-4.4758,-4.4717,-4.4778,-4.4879,-4.4837,-4.4938,-4.4936,-4.4949,-4.5007,-4.4948,-4.5003,-4.496,-4.5011,-4.4987,-4.508,-4.5092,-4.5084,-4.5076,-4.5088,-4.5089,-4.5104,-4.509,-4.5058,-4.5057,-4.5055,-4.5054,0,-4.4887,-4.4864,-4.4967,-4.4969,-4.4972,-4.5046,-4.5047,-4.5102,-4.5089,-4.5163,-4.5178,-4.5157,-4.5214,-4.5187,-4.5247,-4.5231,-4.535,-4.5326,-4.5343,-4.5336,-4.5425,-4.5417,-4.5721,-4.5758,-4.5481,-4.5484,-4.5486,0,-4.5026,-4.5095,-4.5105,-4.5139,-4.515,-4.5207,-4.5238,-4.5199,-4.5233,-4.526,-4.5312,-4.5364,-4.5403,-4.5498,-4.5487,-4.5532,-4.5508,-4.5612,-4.5515,-4.5524,-4.5507,-4.5503,-4.5509,-4.5631,-4.5634,-4.5637,-4.5639,0,-4.5274,-4.5259,-4.5306,-4.5349,-4.5387,-4.5419,-4.5445,-4.5477,-4.5439,-4.548,-4.5538,-4.5568,-4.5629,-4.5681,-4.572,-4.5725,-4.5676,-4.567,-4.5692,-4.5705,-4.5711,-4.5707,-4.5395,-4.5663,-4.5661,-4.5659,-4.5658,-4.5657,-4.5457,-4.5514,-4.553,-4.5583,-4.5599,-4.5625,-4.5677,-4.567,-4.5717,-4.5764,-4.5738,-4.5805,-4.582,-4.5868,-4.588,-4.5931,-4.5889,-4.5922,-4.593,-4.5939,-4.595,-4.5705,-4.5938,-4.5937,-4.5937,-4.5936,-4.5935,0,-4.57,-4.5706,-4.5756,-4.5795,-4.5837,-4.5787,-4.5813,-4.5851,-4.5911,-4.593,-4.597,-4.6036,-4.6085,-4.6079,-4.6124,-4.6166,-4.6144,-4.6179,-4.6174,-4.6176,-4.5985,-4.596,-4.6195,-4.6195,-4.6195,-4.6195,-4.6195,-4.6195,-4.5832,-4.5925,-4.5912,-4.6013,-4.6018,-4.6083,-4.6102,-4.6125,-4.614,-4.6216,-4.6257,-4.6252,-4.626,-4.6305,-4.6348,-4.6344,-4.6363,-4.6406,-4.6394,-4.6215,-4.619,-4.6165,-4.6141,-4.641,-4.6411,-4.658,-4.6581,-4.6583]},{"header":{"parameterUnit":"m.s-1","parameterCategory":1,"la1":30.2991,"la2":30.254,"lo1":-89.0895,"lo2":-89.0444,"dy":0.0017,"dx":0.0017,"nx":28,"ny":28,"refTime":"2025-11-28T03:00:00:Z","depth":0,"parameterNumber":3,"parameterNumberName":"V-component_of_WINDS"},"data":[0,0,0,0,0,0,0,0,0,0,0,0,0,0,0,0,0,0,0,0,0,0,0,0,0,0,0,0,0,0,0,0,0,0,0,0,0,0,0,0,0,0,0,0,0,0,0,0,0,0,0,0,0,0,0,0,0,0,-4.2934,-4.2935,0,-4.3002,-4.3003,-4.3004,-4.2943,-4.2941,-4.2938,-4.2936,-4.3003,-4.3007,-4.3011,0,0,0,0,0,0,0,0,0,0,0,0,0,-4.2748,-4.2752,-4.2934,-4.2935,-4.2936,-4.3002,-4.3003,-4.3004,-4.2944,-4.2941,-4.2938,-4.2935,-4.3002,-4.3006,-4.3011,0,0,0,0,0,0,0,0,0,0,0,0,0,-4.2824,-4.2753,-4.2934,-4.2914,-4.2913,-4.3002,-4.3003,-4.3004,-4.2944,-4.2941,-4.2937,-4.2934,-4.3,-4.3006,-4.3012,-4.3124,0,0,-4.3031,-4.3033,0,0,0,0,0,0,0,0,-4.2819,-4.283,-4.2916,-4.2915,-4.2914,-4.296,-4.2962,-4.3044,-4.2945,-4.2932,-4.2936,-4.2932,-4.2992,-4.2998,-4.3019,-4.3127,-4.313,-4.3031,-4.3035,-4.3038,-4.3039,0,0,0,0,0,0,0,-4.2814,-4.2827,-4.2961,-4.2917,-4.2916,-4.29,-4.2907,-4.2977,-4.2982,-4.2933,-4.2929,-4.2938,-4.299,-4.3013,-4.302,-4.3131,-4.3031,-4.3036,-4.304,-4.3043,-4.333,-4.3334,0,0,0,0,0,0,-4.2812,-4.2823,-4.2959,-4.2963,-4.2857,-4.2906,-4.2914,-4.2949,-4.2981,-4.2982,-4.2941,-4.2935,-4.3005,-4.3013,-4.3022,-4.3153,-4.3038,-4.3043,-4.3047,-4.3326,-4.3331,-4.3335,0,0,0,0,0,0,-4.2808,-4.2824,-4.2956,-4.2892,-4.2907,-4.2913,-4.2954,-4.2953,-4.2975,-4.2987,-4.2987,-4.2964,-4.3002,-4.3014,-4.3098,-4.3154,-4.3046,-4.3052,-4.3321,-4.3327,-4.3333,-4.3416,0,0,0,0,0,0,-4.2803,-4.2823,-4.2867,-4.2893,-4.2911,-4.3032,-4.2957,-4.2957,-4.2986,-4.2979,-4.3008,-4.3009,-4.3,-4.3089,-4.3104,-4.3161,-4.3056,-4.3316,-4.3324,-4.3331,-4.3408,-4.3424,-4.3438,0,0,0,0,0,-4.2796,-4.2888,-4.2869,-4.2886,-4.2966,-4.3036,-4.3046,-4.3034,-4.2991,-4.3034,-4.3041,-4.3008,-4.3146,-4.3099,-4.3115,-4.3174,-4.3313,-4.3322,-4.333,-4.3402,-4.3421,-4.3437,0,0,0,0,0,0,-4.2867,-4.2891,-4.2871,-4.2974,-4.3003,-4.3026,-4.3079,-4.3055,-4.3097,-4.3088,-4.3071,-4.3078,-4.3167,-4.3179,-4.3126,-4.3282,-4.3222,-4.3235,-4.3271,-4.3289,-4.3304,-4.3298,-4.3061,0,0,0,0,0,-4.2895,-4.2951,-4.2968,-4.3057,-4.3073,-4.3074,-4.3104,-4.3092,-4.3121,-4.3133,-4.3147,-4.3176,-4.3225,-4.3258,-4.3304,-4.341,-4.3414,-4.3458,-4.3473,-4.3485,-4.3496,-4.355,-4.3569,-4.3364,-4.3364,-4.3364,0,0,-4.2952,-4.2972,-4.3009,-4.3072,-4.3093,-4.315,-4.3085,-4.3148,-4.3189,-4.3143,-4.3223,-4.3234,-4.3265,-4.336,-4.3402,-4.3373,-4.3553,-4.3496,-4.3506,-4.351,-4.3561,-4.358,-4.3598,-4.337,-4.3369,-4.3368,0,0,-4.3086,-4.3108,-4.3183,-4.3205,-4.3239,-4.3238,-4.3257,-4.3282,-4.3288,-4.3368,-4.3334,-4.3382,-4.3468,-4.3491,-4.3514,-4.3654,-4.3625,-4.367,-4.3746,-4.3799,-4.3815,-4.3829,-4.3877,-4.3895,-4.368,-4.3681,-4.3681,0,-4.3153,-4.3238,-4.3224,-4.329,-4.3317,-4.3278,-4.3353,-4.3375,-4.3422,-4.3441,-4.3408,-4.3513,-4.3532,-4.363,-4.3664,-4.3685,-4.3703,-4.3666,-4.3814,-4.3828,-4.3841,-4.3886,-4.3905,-4.3686,-4.3685,-4.3685,-4.3684,0,-4.3317,-4.3377,-4.3433,-4.3479,-4.3513,-4.3583,-4.3579,-4.3615,-4.36,-4.3602,-4.3683,-4.3704,-4.3752,-4.3775,-4.3761,-4.3871,-4.3852,-4.3817,-4.3756,-4.3866,-4.3908,-4.3925,-4.3693,-4.3691,-4.369,-4.3688,0,0,-4.3498,-4.3534,-4.3555,-4.3574,-4.3608,-4.3652,-4.3719,-4.3767,-4.3797,-4.3831,-4.3885,-4.3958,-4.3925,-4.3951,-4.3939,-4.3986,-4.4093,-4.3944,-4.3945,-4.3969,-4.4212,-4.4238,-4.4258,-4.4074,-4.4077,-4.408,-4.4209,0,-4.3631,-4.3748,-4.3737,-4.3848,-4.3901,-4.3864,-4.3922,-4.3947,-4.3951,-4.3996,-4.4,-4.4051,-4.4005,-4.402,-4.4065,-4.407,-4.4141,-4.4061,-4.4122,-4.4125,-4.4114,-4.4281,-4.4308,-4.4429,-4.4226,-4.4229,-4.4231,0,-4.3802,-4.3841,-4.3957,-4.398,-4.4002,-4.4054,-4.4096,-4.414,-4.4167,-4.4166,-4.4195,-4.4174,-4.424,-4.4178,-4.4267,-4.4213,-4.4237,-4.4244,-4.4248,-4.4252,-4.4183,-4.4287,-4.4468,-4.4485,-4.4257,-4.4255,-4.4253,0,-4.3919,-4.4,-4.408,-4.4098,-4.4127,-4.4164,-4.4178,-4.4202,-4.4231,-4.4267,-4.4285,-4.4329,-4.4352,-4.4385,-4.4376,-4.4333,-4.4466,-4.4405,-4.4466,-4.4466,-4.4495,-4.4493,-4.468,-4.4514,-4.4513,-4.4513,-4.4512,0,-4.4068,-4.414,-4.4132,-4.4181,-4.426,-4.4246,-4.4323,-4.4332,-4.4354,-4.4402,-4.4373,-4.4418,-4.4405,-4.4449,-4.4443,-4.4515,-4.4527,-4.4527,-4.4524,-4.4529,-4.4528,-4.4543,-4.4534,-4.4518,-4.4517,-4.4516,-4.4515,0,-4.4212,-4.421,-4.4294,-4.4314,-4.4321,-4.4378,-4.4395,-4.4439,-4.4441,-4.4502,-4.4516,-4.4518,-4.4568,-4.4563,-4.462,-4.4615,-4.4705,-4.4693,-4.4696,-4.4693,-4.4754,-4.4747,-4.4956,-4.4981,-4.48,-4.4802,-4.4803,0,-4.4306,-4.436,-4.4386,-4.4417,-4.4433,-4.4483,-4.4512,-4.45,-4.4531,-4.4565,-4.4606,-4.4654,-4.4692,-4.4774,-4.478,-4.4823,-4.481,-4.488,-4.4816,-4.4819,-4.4809,-4.4805,-4.4809,-4.4892,-4.4894,-4.4896,-4.4897,0,-4.4473,-4.4469,-4.4512,-4.4555,-4.4591,-4.4624,-4.4654,-4.468,-4.467,-4.4707,-4.4758,-4.4788,-4.4845,-4.4893,-4.4933,-4.4946,-4.492,-4.4918,-4.4934,-4.4938,-4.4937,-4.4936,-4.4729,-4.4913,-4.4911,-4.491,-4.4909,-4.4908,-4.4593,-4.4639,-4.4664,-4.4713,-4.4734,-4.4762,-4.4805,-4.4811,-4.4854,-4.4901,-4.489,-4.4948,-4.4972,-4.5023,-4.504,-4.5084,-4.5058,-4.5082,-4.5088,-4.5093,-4.51,-4.4931,-4.5091,-4.5091,-4.5091,-4.509,-4.509,0,-4.4757,-4.4771,-4.4816,-4.4858,-4.4896,-4.4869,-4.49,-4.4933,-4.4985,-4.501,-4.5047,-4.5106,-4.5151,-4.516,-4.5203,-4.5236,-4.5225,-4.5248,-4.5245,-4.5247,-4.5121,-4.5102,-4.5256,-4.5256,-4.5256,-4.5256,-4.5256,-4.5256,-4.4846,-4.4921,-4.492,-4.5005,-4.5018,-4.5075,-4.5094,-4.5119,-4.5139,-4.5206,-4.5243,-4.5249,-4.5267,-4.5311,-4.5351,-4.5352,-4.5368,-4.5395,-4.5392,-4.5273,-4.5257,-4.5241,-4.5223,-4.5399,-4.54,-4.5514,-4.5515,-4.5516]}]]